EHI
0 0 0 0 0 0 0 0 0 0 0 0 0 0 0 0 0 0 0 0 0 0 0 0 0 0 0 0 0 0 0 0 0 0 0 0 0 0 0 0 0 0 0 0
0 0 0 0 0 0 0 0 0 0 0 0 0 0 0 0 0 0 0 0 0 0 0 0 0 0 0 0 0 0 0 0 0 0 0 0 0 0 0 0 0 0 0 0
0 0 0 0 0 0 0 0 0 0 0 0 0 0 0 0 0 0 0 0 0 0 0 0 0 0 0 0 0 0 0 0 0 0 0 0 0 0 0 0 0 0 0 0
0 0 0 0 0 0 0 0 0 0 0 0 0 0 0 0 0 0 0 0 0 0 0 0 0 0 0 0 0 0 0 0 0 0 0 0 0 0 0 0 0 0 0 0
0 0 0 0 0 0 0 0 0 0 0 0 0 0 0 0 0 0 0 0 0 0 0 0 0 0 0 0 0 0 0 0 0 0 0 0 0 0 0 0 0 0 0 0
0 0 0 0 0 0 0 0 0 0 0 0 0 0 0 0 0 0 0 0 0 0 0 0 0 0 0 0 0 0 0 0 0 0 0 0 0 0 0 0 0 0 0 0
0 0 0 0 0 0 0 0 0 0 0 0 0 0 0 0 0 0 0 0 0 0 0 0 0 0 0 0 0 0 0 0 0 0 0 0 0 0 0 0 0 0 0 0
0 0 0 0 0 0 0 0 0 0 0 0 0 0 0 0 0 0 0 0 0 0 0 0 0 0 0 0 0 0 0 0 0 0 0 0 0 0 0 0 0 0 0 0
0 0 0 0 0 0 0 0 0 0 0 0 0 0 0 0 0 0 0 0 0 0 0 0 0 0 0 0 0 0 0 0 0 0 0 0 0 0 0 0 0 0 0 0
0 0 0 0 0 0 0 0 0 0 0 0 0 0 0 0 0 0 0 0 0 0 0 0 0 0 0 0 0 0 0 0 0 0 0 0 0 0 0 0 0 0 0 0
0 0 0 0 0 0 0 0 0 0 0 0 0 0 0 0 0 0 0 0 0 0 0 0 0 0 0 0 0 0 0 0 0 0 0 0 0 0 0 0 0 0 0 0
0 0 0 0 0 0 0 0 0 0 0 0 0 0 0 0 0 0 0 0 0 0 0 0 0 0 0 0 0 0 0 0 0 0 0 0 0 0 0 0 0 0 0 0
0 0 0 0 0 0 0 0 0 0 0 0 0 0 0 0 0 0 0 0 0 0 0 0 0 0 0 0 0 0 0 0 0 0 0 0 0 0 0 0 0 0 0 0
0 0 0 0 0 0 0 0 0 0 0 0 0 0 0 0 0 0 0 0 0 0 0 0 0 0 0 0 0 0 0 0 0 0 0 0 0 0 0 0 0 0 0 0
0 0 0 0 0 0 0 0 0 0 0 0 0 0 0 0 0 0 0 0 0 0 0 0 0 0 0 0 0 0 0 0 0 0 0 0 0 0 0 0 0 0 0 0
0 0 0 0 0 0 0 0 0 0 0 0 0 0 0 0 0 0 0 0 0 0 0 0 0 0 0 0 0 0 0 0 0 0 0 0 0 0 0 0 0 0 0 0
0 0 0 0 0 0 0 0 0 0 0 0 0 0 0 0 0 0 0 0 0 0 0 0 0 0 0 0 0 0 0 0 0 0 0 0 0 0 0 0 0 0 0 0
0 0 0 0 0 0 0 0 0 0 0 0 0 0 0 0 0 0 0 0 0 0 0 0 0 0 0 0 0 0 0 0 0 0 0 0 0 0 0 0 0 0 0 0
0 0 0 0 0 0 0 0 0 0 0 0 0 0 0 0 0 0 0 0 0 0 0 0 0 0 0 0 0 0 0 0 0 0 0 0 0 0 0 0 0 0 0 0
0 0 0 0 0 0 0 0 0 0 0 0 0 0 0 0 0 0 0 0 0 0 0 0 0 0 0 0 0 0 0 0 0 0 0 0 0 0 0 0 0 0 0 0
0 0 0 0 0 0 0 0 0 0 0 0 0 0 0 0 0 0 0 0 0 0 0 0 0 0 0 0 0 0 0 0 0 0 0 0 0 0 0 0 0 0 0 0
0 0 0 0 0 0 0 0 0 0 0 0 0 0 0 0 0 0 0 0 0 0 0 0 0 0 0 0 0 0 0 0 0 0 0 0 0 0 0 0 0 0 0 0
0 0 0 0 0 0 0 0 0 0 0 0 0 0 0 0 0 0 0 0 0 0 0 0 0 0 0 0 0 0 0 0 0 0 0 0 0 0 0 0 0 0 0 0
0 0 0 0 0 0 0 0 0 0 0 0 0 0 0 0 0 0 0 0 0 0 0 0 0 0 0 0 0 0 0 0 0 0 0 0 0 0 0 0 0 0 0 0
0 0 0 0 0 0 0 0 0 0 0 0 0 0 0 0 0 0 0 0 0 0 0 0 0 0 0 0 0 0 0 0 0 0 0 0 0 0 0 0 0 0 0 0
0 0 0 0 0 0 0 0 0 0 0 0 0 0 0 0 0 0 0 0 0 0 0 0 0 0 0 0 0 0 0 0 0 0 0 0 0 0 0 0 0 0 0 0
0 0 0 0 0 0 0 0 0 0 0 0 0 0 0 0 0 0 0 0 0 0 0 0 0 0 0 0 0 0 0 0 0 0 0 0 0 0 0 0 0 0 0 0
Wind_Speed
8 8 7 9 9 7 8 8 7 7 7 7 4 2 2 2 2 3 4 4 4 4 4 4 4 4 4 4 4 3 3 2 2 2 2 1 1 1 1 1 2 2 2 2
7 7 8 11 12 11 11 11 12 11 13 7 3 1 1 2 3 3 3 4 4 4 4 4 4 4 4 4 4 3 3 3 2 2 2 1 1 1 1 2 2 2 2 3
5 4 7 9 8 8 6 6 7 10 8 3 3 2 2 2 3 4 4 4 4 4 4 4 4 4 4 4 4 3 3 3 2 2 2 2 2 2 2 2 2 2 3 3
4 5 7 6 1 1 4 6 7 7 5 4 3 2 2 2 2 3 3 3 4 3 3 3 4 4 4 4 4 4 3 3 2 2 2 2 2 2 2 2 2 2 3 3
3 5 9 5 2 1 2 5 4 5 5 3 2 3 3 2 2 2 2 2 3 3 3 3 4 4 4 4 3 3 3 3 3 2 2 2 2 2 2 2 2 2 2 3
4 5 6 3 2 2 2 4 2 1 2 2 1 2 3 1 1 1 0 1 2 3 3 4 4 4 4 4 4 4 3 3 3 3 3 3 3 2 2 2 2 2 3 4
6 6 8 2 2 2 1 3 1 2 2 1 2 3 2 1 1 1 0 0 2 3 3 3 4 4 4 4 4 4 3 3 2 3 3 3 2 2 2 2 2 3 4 4
5 7 9 2 3 3 4 2 2 2 2 2 3 2 2 1 1 1 1 1 2 2 2 3 4 5 4 4 3 3 3 2 3 3 3 2 2 3 2 3 3 4 3 4
7 8 3 4 5 4 2 4 3 2 3 3 3 3 3 2 2 2 2 2 2 3 3 3 4 4 5 4 3 3 3 3 3 3 2 3 3 3 2 2 2 3 3 3
7 7 6 5 5 5 4 5 5 4 4 3 4 4 4 3 3 2 2 3 3 3 3 3 4 4 4 3 4 4 3 3 3 3 3 3 2 2 2 2 3 3 3 4
9 8 8 6 5 5 5 4 5 5 4 4 5 5 4 4 4 3 3 3 3 4 4 4 4 4 4 4 4 3 3 3 3 3 3 2 3 3 3 4 4 4 4 3
9 6 6 6 4 4 5 5 5 5 5 4 4 5 5 4 4 3 3 3 3 4 4 4 4 4 4 4 4 4 3 3 3 2 2 2 2 3 5 6 7 8 8 7
10 8 7 7 6 6 5 5 5 5 5 5 4 4 4 4 3 3 3 3 4 5 4 4 4 4 4 4 4 5 4 4 3 3 2 2 2 3 4 5 7 9 10 10
7 6 8 7 6 5 5 6 5 5 5 5 4 4 3 3 3 3 4 4 4 4 4 4 5 5 4 4 4 4 4 4 3 3 3 3 3 3 3 4 4 4 6 9
7 6 7 6 5 5 4 4 4 5 5 5 4 4 3 3 4 4 3 2 2 3 4 4 5 5 4 4 4 4 3 3 3 3 3 3 3 3 3 4 4 5 4 5
6 5 5 5 6 6 5 4 5 6 5 5 4 4 4 4 4 3 2 2 3 4 4 4 5 4 4 4 4 3 3 5 4 3 3 3 3 3 3 4 4 4 4 4
5 5 5 6 6 6 5 5 5 5 5 5 5 4 3 3 3 3 3 3 4 4 4 4 4 3 4 4 4 3 3 3 5 3 3 3 3 4 4 4 5 5 5 5
4 4 5 5 5 5 5 5 5 5 5 5 4 3 3 3 4 4 3 2 2 3 3 4 3 3 3 3 3 3 3 3 3 3 3 3 4 4 4 4 5 6 5 5
4 4 5 5 5 4 5 5 5 4 3 2 2 3 3 4 4 3 2 2 3 4 4 3 3 3 3 4 3 3 3 3 3 3 3 6 5 4 4 5 5 5 5 5
4 4 4 4 5 4 4 4 4 4 3 2 2 2 3 3 2 2 2 3 4 4 3 2 2 2 3 3 4 2 3 3 3 4 4 4 4 4 5 5 5 5 5 5
4 4 4 4 4 4 4 4 3 4 3 2 2 3 3 3 2 2 2 3 3 2 2 3 2 2 2 3 3 2 3 3 4 4 4 4 4 5 5 5 5 5 6 6
3 3 4 4 4 4 4 3 3 3 3 2 2 2 2 3 3 2 3 4 3 3 2 2 2 3 4 4 2 3 3 4 4 4 4 4 4 5 5 5 5 6 5 5
3 4 4 4 4 4 4 3 3 2 3 3 3 3 3 3 2 2 3 2 2 3 2 2 4 5 6 3 3 3 4 4 5 4 4 4 5 5 5 6 5 5 5 5
3 4 4 3 3 3 4 4 3 2 3 3 3 3 3 2 2 2 3 3 4 4 2 4 6 7 6 2 3 3 4 4 4 4 4 4 4 5 5 5 6 5 5 6
3 3 3 3 3 3 3 3 3 3 3 2 3 3 2 2 2 2 2 2 4 4 2 4 7 7 4 3 3 4 4 5 5 4 4 4 4 5 5 5 5 5 5 5
3 3 3 3 3 3 3 2 2 2 2 2 3 2 1 1 2 2 2 2 3 4 3 2 3 4 3 3 4 4 4 5 5 5 4 4 5 5 5 5 6 5 5 5
3 3 2 3 3 2 2 2 2 3 2 2 3 3 2 2 2 2 2 2 2 2 3 3 3 3 3 3 4 4 4 4 4 4 4 4 4 4 5 5 5 4 4 4
Wind_Direction
277 285 285 273 266 249 235 234 244 261 270 275 276 248 200 186 183 176 171 173 172 172 168 161 157 158 156 152 148 150 158 169 182 172 164 169 185 200 200 202 213 215 223 236
282 266 268 272 261 251 248 244 249 266 274 273 270 276 212 189 192 197 191 185 179 175 169 166 167 165 156 154 154 154 164 175 169 168 172 176 193 205 213 223 225 222 226 232
281 297 303 273 249 224 223 224 230 246 255 273 273 260 244 223 211 211 204 191 187 183 180 172 169 161 161 162 154 159 170 168 166 176 185 195 199 211 225 228 228 232 234 232
285 310 260 251 322 244 237 251 243 255 276 300 299 294 267 244 238 233 210 188 183 178 174 165 156 152 150 148 154 164 169 172 174 177 191 201 208 228 235 233 233 238 241 242
257 272 274 269 246 225 251 279 250 246 269 289 336 336 299 264 234 248 232 197 176 168 163 150 145 145 142 151 158 169 180 184 182 181 196 207 220 235 238 240 252 250 250 252
243 255 261 268 100 48 16 283 314 309 301 314 30 298 277 319 347 329 351 164 150 143 137 139 144 141 149 166 172 187 191 185 180 185 201 215 222 231 236 236 248 261 265 258
237 250 264 270 131 114 212 266 349 349 316 281 244 240 264 343 12 356 340 145 138 136 147 158 150 148 166 177 192 189 171 170 182 196 207 218 223 227 230 237 252 262 266 266
209 228 252 184 141 199 249 281 291 294 283 268 266 279 293 285 260 231 237 207 158 151 161 160 157 161 176 193 186 159 158 178 201 211 214 213 223 235 234 233 249 263 271 278
213 227 254 187 222 253 293 295 291 289 292 278 276 274 276 270 253 237 223 215 185 172 174 175 171 170 184 193 163 156 171 200 214 217 220 221 227 238 244 241 245 258 263 272
271 270 281 267 268 279 281 277 284 285 284 276 270 271 274 268 256 241 223 207 194 179 185 198 191 185 187 176 162 166 192 210 213 217 229 230 231 232 235 240 247 254 260 267
267 277 289 275 267 277 285 285 288 284 275 264 264 268 265 264 253 233 216 206 195 194 200 206 197 190 183 174 167 182 203 212 215 220 226 233 234 231 238 237 233 244 248 250
254 263 271 286 305 303 283 281 284 286 284 273 258 264 264 258 249 232 214 204 205 208 207 206 197 195 192 184 178 186 205 214 214 216 225 233 251 274 260 255 263 263 261 262
261 275 275 279 287 290 285 284 280 274 274 277 270 259 257 258 254 234 218 212 214 212 208 205 201 202 199 190 188 196 206 212 211 214 221 233 242 254 281 287 272 269 270 272
273 278 275 276 279 283 280 281 284 283 279 274 269 264 255 252 248 230 225 223 217 212 210 206 205 210 203 188 190 202 207 212 212 215 220 228 237 243 252 270 288 286 275 275
268 262 264 278 284 287 284 282 283 281 280 279 274 263 249 243 242 238 230 218 210 216 220 213 213 218 198 183 190 202 206 212 215 217 220 229 237 245 253 260 267 276 283 283
277 274 271 272 274 274 271 266 266 272 273 269 265 259 251 242 239 236 223 202 206 222 226 221 224 220 192 185 192 202 212 222 222 219 225 233 238 244 252 258 264 268 271 272
278 278 276 274 273 273 269 262 260 264 269 265 260 258 253 245 241 238 235 227 223 229 229 224 228 219 197 192 193 201 208 217 222 225 228 234 240 245 252 256 261 265 265 267
279 277 277 276 276 281 283 278 272 269 264 262 264 257 245 239 243 245 242 236 238 252 248 234 220 202 196 195 195 198 203 210 215 223 234 240 246 246 250 255 260 266 272 276
309 301 300 297 289 280 278 279 279 275 271 263 255 253 250 248 246 242 229 220 231 248 255 230 204 196 204 208 203 199 205 217 231 237 238 251 257 249 251 256 260 263 268 271
305 303 303 302 299 288 284 286 287 285 280 264 257 262 263 258 243 228 218 234 237 236 234 220 202 205 210 213 212 203 210 223 237 243 242 242 246 252 254 257 261 264 266 266
308 310 307 302 300 295 285 282 284 284 283 264 241 247 258 264 246 224 224 258 262 233 212 215 207 207 208 217 221 213 223 232 240 243 245 248 251 255 257 259 263 267 269 270
303 301 298 299 300 302 301 297 286 282 284 278 263 252 254 262 258 254 242 241 244 239 230 220 218 225 231 238 220 223 233 238 243 245 246 248 252 259 262 262 264 266 266 266
304 300 298 297 296 300 311 313 297 282 277 273 266 259 254 252 243 242 268 258 232 250 250 235 245 250 257 251 227 231 238 243 247 247 247 247 251 255 260 263 264 265 267 267
302 303 301 300 306 313 312 309 309 298 282 278 269 256 250 263 276 252 237 257 268 275 262 256 264 266 272 255 239 243 246 249 251 250 251 253 254 255 258 261 265 266 266 267
295 296 303 309 307 296 290 298 307 303 297 295 293 284 264 237 243 261 263 259 271 289 279 271 274 276 271 249 247 250 251 251 254 254 249 253 257 260 262 263 263 265 266 266
288 291 291 287 283 283 286 291 294 294 298 303 306 303 299 289 268 270 273 270 270 287 286 273 268 272 259 253 254 256 257 265 269 263 254 255 258 260 262 263 265 266 267 268
290 288 296 305 302 293 290 288 285 290 292 289 295 299 301 299 293 285 283 285 288 286 282 276 267 262 261 260 262 263 262 259 257 257 258 259 260 260 262 263 265 265 266 267